Content
SEND FEEDBACK

Daily
Averages
Monthly
Summary
United States of America

MANGILAO, GUAM


Home > North America > United States > Guam
Elevation: 60 feet     Latitude: 13 27N     Longitude: 144 49E

WEATHER
 
SELECT A DAY
Number of Records: 341,964;   Date Range: 1/1/95 - 7/26/14
 
SHARE

PRINT THIS DATA

[ ← Previous Day ]
WEATHER ALMANAC - APRIL 11, 2014
[ Next Day → ]
[ °C ]   °F
Weather ElementAverageHighLow
Temperature78.6 °F83.7 °F (1:58 pm)76.1 °F (4:58 am)
Dewpoint74.9 °F77 °F (10:33 am)71.8 °F (5:58 pm)
Humidity88.7 %94 % (12:44 am)74 % (3:23 pm)
Barometer29.84 in29.89 in (10:28 pm)29.76 in (3:58 pm)
Wind Speed11.3 mph18.4 mph (12:39 am)
Wind Gust18.4 mph (4:43 pm)
Weather ElementAverage
Visibility9.9 mi
Wind DirectionESE (96.1 °)

Weather ElementTotal
Precipitation0.02 in
Cooling Degree Days14.9 (Base 65)
Growing Degree Days29.9 (Base 50)
Averaged from 102 records on April 11, 2014
WEATHER CONDITIONS BREAKOUT
WIND DIRECTION BREAKOUT
WEATHER BY HOUR - APRIL 11, 2014
[ °C ]   °F
Local TimeTemperatureDewpointHumidityBarometerVisibilityWind DirectionWind SpeedGust SpeedPrecipitationEventsConditions
12:18 AM78.8 °F75.2 °F89 %29.87 in10.0 miENE (70°)9.2 mphMostly Cloudy
12:28 AM78.8 °F75.2 °F89 %29.87 in10.0 miENE (70°)11.5 mphMostly Cloudy
12:39 AM78.8 °F75.2 °F89 %29.87 in10.0 miESE (120°)18.4 mphRainLight Rain
12:44 AM77.0 °F75.2 °F94 %29.87 in10.0 miESE (120°)16.1 mphRainLight Rain
12:49 AM77.0 °F75.2 °F94 %29.87 in10.0 miESE (110°)13.8 mphRainLight Rain
12:53 AM77.0 °F75.2 °F94 %29.86 in10.0 miESE (110°)11.5 mphMostly Cloudy
12:58 AM76.8 °F74.7 °F93 %29.83 in10.0 miEast (100°)9.2 mph0.02 inMostly Cloudy
1:03 AM77.0 °F75.2 °F94 %29.86 in10.0 miEast (100°)10.4 mphMostly Cloudy
1:28 AM77.0 °F75.2 °F94 %29.85 in10.0 miEast (100°)10.4 mphMostly Cloudy
1:38 AM77.0 °F75.2 °F94 %29.85 in10.0 miEast (100°)10.4 mphMostly Cloudy
1:43 AM77.0 °F75.2 °F94 %29.85 in10.0 miEast (100°)10.4 mphMostly Cloudy
1:53 AM77.0 °F75.2 °F94 %29.85 in10.0 miEast (100°)12.7 mphOvercast
1:58 AM76.6 °F74.7 °F94 %29.82 in10.0 miEast (100°)12.7 mphOvercast
2:13 AM77.0 °F75.2 °F94 %29.84 in10.0 miEast (100°)13.8 mphMostly Cloudy
2:58 AM76.8 °F74.7 °F93 %29.79 in10.0 miEast (90°)12.7 mphMostly Cloudy
3:03 AM77.0 °F75.2 °F94 %29.82 in10.0 miEast (90°)12.7 mphMostly Cloudy
3:23 AM77.0 °F75.2 °F94 %29.81 in10.0 miEast (90°)12.7 mphMostly Cloudy
3:33 AM77.0 °F75.2 °F94 %29.81 in10.0 miEast (100°)12.7 mphMostly Cloudy
3:43 AM77.0 °F75.2 °F94 %29.81 in10.0 miESE (110°)11.5 mphMostly Cloudy
3:58 AM76.6 °F74.8 °F94 %29.78 in10.0 miESE (110°)10.4 mphMostly Cloudy
4:16 AM77.0 °F75.2 °F94 %29.81 in10.0 miESE (120°)11.5 mphRainLight Rain
4:26 AM77.0 °F73.4 °F89 %29.81 in10.0 miESE (110°)10.4 mphMostly Cloudy
4:58 AM76.1 °F73.2 °F91 %29.78 in10.0 miESE (120°)10.4 mph0.00 inScattered Clouds
5:53 AM77.0 °F73.4 °F89 %29.82 in10.0 miEast (100°)10.4 mphOvercast
5:58 AM77.0 °F73.9 °F90 %29.81 in10.0 miEast (90°)10.4 mphOvercast
6:03 AM77.0 °F75.2 °F94 %29.83 in10.0 miEast (90°)12.7 mphOvercast
6:08 AM77.0 °F75.2 °F94 %29.83 in10.0 miEast (90°)11.5 mphOvercast
6:13 AM77.0 °F75.2 °F94 %29.83 in10.0 miEast (90°)13.8 mphOvercast
6:18 AM77.0 °F75.2 °F94 %29.83 in10.0 miEast (90°)15.0 mphOvercast
6:28 AM77.0 °F75.2 °F94 %29.83 in10.0 miEast (100°)16.1 mphOvercast
6:33 AM77.0 °F75.2 °F94 %29.84 in10.0 miEast (100°)15.0 mphOvercast
6:38 AM77.0 °F75.2 °F94 %29.84 in10.0 miEast (90°)12.7 mphOvercast
6:53 AM77.0 °F75.2 °F94 %29.84 in10.0 miEast (100°)13.8 mphMostly Cloudy
6:58 AM77.2 °F74.5 °F91 %29.81 in10.0 miEast (100°)12.7 mphMostly Cloudy
7:08 AM77.0 °F75.2 °F94 %29.84 in10.0 miESE (120°)15.0 mphOvercast
7:18 AM77.0 °F75.2 °F94 %29.85 in10.0 miESE (120°)13.8 mphOvercast
7:36 AM77.0 °F75.2 °F94 %29.86 in10.0 miESE (110°)15.0 mphLight Drizzle
7:45 AM77.0 °F75.2 °F94 %29.86 in10.0 miESE (110°)11.5 mphOvercast
7:55 AM77.0 °F75.2 °F94 %29.87 in10.0 miESE (110°)11.5 mphOvercast
7:58 AM77.5 °F74.7 °F91 %29.84 in10.0 miESE (110°)11.5 mph0.00 inOvercast
8:13 AM78.8 °F75.2 °F89 %29.87 in10.0 miESE (110°)10.4 mphMostly Cloudy
8:18 AM78.8 °F75.2 °F89 %29.88 in10.0 miESE (110°)12.7 mphMostly Cloudy
8:23 AM78.8 °F75.2 °F89 %29.88 in10.0 miESE (110°)12.7 mphMostly Cloudy
8:33 AM78.8 °F75.2 °F89 %29.88 in10.0 miESE (120°)10.4 mphMostly Cloudy
8:58 AM79.9 °F74.5 °F83 %29.86 in10.0 miSE (130°)10.4 mphOvercast
9:58 AM81.1 °F74.8 °F81 %29.86 in10.0 miESE (110°)13.8 mphOvercast
10:17 AM80.6 °F75.2 °F84 %29.88 in10.0 miEast (80°)12.7 mphMostly Cloudy
10:23 AM78.8 °F75.2 °F89 %29.88 in10.0 miENE (70°)13.8 mphRainLight Rain
10:28 AM78.8 °F75.2 °F89 %29.88 in8.0 miEast (80°)17.3 mphRainLight Rain
10:33 AM78.8 °F77.0 °F94 %29.88 in8.0 miEast (90°)17.3 mphRainLight Rain
10:37 AM78.8 °F77.0 °F94 %29.88 in10.0 miEast (100°)16.1 mphOvercast
10:47 AM78.8 °F75.2 °F89 %29.88 in10.0 miESE (110°)12.7 mphMostly Cloudy
10:52 AM78.8 °F75.2 °F89 %29.88 in10.0 miESE (110°)12.7 mphMostly Cloudy
10:58 AM78.8 °F75.2 °F89 %29.86 in10.0 miESE (120°)10.4 mph0.00 inMostly Cloudy
11:23 AM80.6 °F75.2 °F84 %29.88 in10.0 miESE (120°)10.4 mphMostly Cloudy
11:58 AM81.3 °F75.4 °F82 %29.84 in10.0 miESE (120°)11.5 mphMostly Cloudy
12:23 PM80.6 °F75.2 °F84 %29.86 in10.0 miEast (80°)12.7 mphMostly Cloudy
12:28 PM80.6 °F75.2 °F84 %29.86 in10.0 miEast (90°)12.7 mphMostly Cloudy
12:29 PM80.6 °F75.2 °F84 %29.86 in10.0 miEast (90°)13.8 mphRainLight Rain
12:39 PM78.8 °F75.2 °F89 %29.85 in10.0 miEast (90°)12.7 mphRainLight Rain
12:40 PM78.8 °F75.2 °F89 %29.85 in10.0 miEast (90°)13.8 mphMostly Cloudy
12:50 PM80.6 °F75.2 °F84 %29.84 in10.0 miEast (90°)12.7 mphMostly Cloudy
12:55 PM80.6 °F75.2 °F84 %29.84 in10.0 miEast (80°)9.2 mphMostly Cloudy
12:58 PM80.6 °F75.4 °F84 %29.81 in10.0 miEast (90°)9.2 mph0.00 inMostly Cloudy
1:58 PM83.7 °F75.4 °F76 %29.78 in10.0 miEast (100°)9.2 mphMostly Cloudy
2:43 PM82.4 °F75.2 °F79 %29.80 in10.0 miEast (90°)8.1 mphMostly Cloudy
2:48 PM82.4 °F75.2 °F79 %29.80 in10.0 miEast (80°)6.9 mphMostly Cloudy
2:53 PM82.4 °F75.2 °F79 %29.80 in10.0 miEast (90°)8.1 mphMostly Cloudy
2:58 PM82.2 °F74.8 °F78 %29.77 in10.0 miEast (90°)8.1 mphMostly Cloudy
3:03 PM82.4 °F75.2 °F79 %29.80 in10.0 miEast (80°)5.8 mphScattered Clouds
3:23 PM82.4 °F73.4 °F74 %29.79 in10.0 miEast (90°)5.8 mphMostly Cloudy
3:58 PM81.7 °F73.6 °F76 %29.76 in10.0 miEast (80°)5.8 mphMostly Cloudy
4:15 PM82.4 °F73.4 °F74 %29.79 in10.0 miEast (80°)6.9 mphRainLight Rain
4:18 PM82.4 °F73.4 °F74 %29.79 in10.0 miEast (90°)5.8 mphScattered Clouds
4:43 PM80.6 °F75.2 °F84 %29.80 in10.0 miESE (120°)13.8 mph18.4 mphMostly Cloudy
4:53 PM78.8 °F75.2 °F89 %29.80 in8.0 miSE (130°)12.7 mphMostly Cloudy
4:58 PM77.9 °F75.2 °F91 %29.77 in8.0 miSE (140°)11.5 mph0.00 inMostly Cloudy
5:03 PM77.0 °F73.4 °F89 %29.80 in10.0 miSE (130°)10.4 mphOvercast
5:08 PM77.0 °F73.4 °F89 %29.80 in10.0 miSE (130°)8.1 mphOvercast
5:58 PM78.4 °F71.8 °F80 %29.79 in10.0 miSSE (160°)4.6 mphOvercast
6:58 PM78.4 °F73.2 °F84 %29.81 in10.0 miENE (70°)3.5 mphOvercast
7:58 PM78.4 °F75.4 °F90 %29.83 in10.0 miNE (40°)5.8 mphScattered Clouds
8:58 PM77.9 °F74.8 °F90 %29.86 in10.0 miENE (70°)8.1 mphClear
9:43 PM78.8 °F75.2 °F89 %29.88 in10.0 miEast (90°)8.1 mphMostly Cloudy
9:46 PM78.8 °F75.2 °F89 %29.88 in10.0 miEast (90°)8.1 mphRainLight Rain
9:55 PM78.8 °F77.0 °F94 %29.88 in10.0 miEast (90°)8.1 mphMostly Cloudy
9:58 PM78.4 °F76.1 °F92 %29.86 in10.0 miEast (90°)9.2 mph0.00 inMostly Cloudy
10:03 PM78.8 °F75.2 °F89 %29.88 in10.0 miEast (90°)9.2 mphScattered Clouds
10:28 PM78.8 °F75.2 °F89 %29.89 in10.0 miEast (90°)12.7 mphMostly Cloudy
10:33 PM78.8 °F75.2 °F89 %29.89 in10.0 miEast (90°)12.7 mphScattered Clouds
10:43 PM78.8 °F75.2 °F89 %29.89 in10.0 miEast (90°)11.5 mphMostly Cloudy
10:48 PM78.8 °F75.2 °F89 %29.88 in10.0 miEast (80°)11.5 mphScattered Clouds
10:53 PM78.8 °F75.2 °F89 %29.88 in10.0 miENE (70°)10.4 mphMostly Cloudy
10:58 PM78.4 °F74.7 °F88 %29.86 in10.0 miENE (70°)11.5 mphMostly Cloudy
11:03 PM78.8 °F75.2 °F89 %29.88 in10.0 miENE (70°)10.4 mphMostly Cloudy
11:23 PM78.8 °F75.2 °F89 %29.88 in10.0 miENE (70°)11.5 mphMostly Cloudy
11:28 PM78.8 °F75.2 °F89 %29.88 in10.0 miENE (60°)11.5 mphMostly Cloudy
11:33 PM78.8 °F75.2 °F89 %29.88 in10.0 miENE (70°)11.5 mphMostly Cloudy
11:38 PM78.8 °F75.2 °F89 %29.88 in10.0 miENE (70°)12.7 mphMostly Cloudy
11:43 PM78.8 °F73.4 °F83 %29.88 in10.0 miENE (70°)10.4 mphScattered Clouds
11:53 PM78.8 °F73.4 °F83 %29.87 in10.0 miENE (70°)12.7 mphMostly Cloudy
11:58 PM78.3 °F74.1 °F87 %29.84 in10.0 miENE (70°)9.2 mphMostly Cloudy
Hourly data recorded from PGUA, located miles away from Mangilao, Guam







STORIES FROM OUR PARTNERS